[[{"header":{"parameterUnit":"m.s-1","parameterCategory":1,"la1":30.2991,"la2":30.254,"lo1":-89.0895,"lo2":-89.0444,"dy":0.0017,"dx":0.0017,"nx":28,"ny":28,"refTime":"2024-04-19T03:00:00:Z","depth":0,"parameterNumber":2,"parameterNumberName":"U-component_of_WINDS"},"data":[0,0,0,0,0,0,0,0,0,0,0,0,0,0,0,0,0,0,0,0,0,0,0,0,0,0,0,0,0,0,0,0,0,0,0,0,0,0,0,0,0,0,0,0,0,0,0,0,0,0,0,0,0,0,0,0,0,0,1.2671,1.2672,0,1.2787,1.2789,1.279,1.2803,1.2802,1.2801,1.2799,1.292,1.2925,1.2929,0,0,0,0,0,0,0,0,0,0,0,0,0,1.246,1.2463,1.267,1.2672,1.2673,1.2787,1.2789,1.279,1.2803,1.2802,1.28,1.2799,1.2919,1.2924,1.2929,0,0,0,0,0,0,0,0,0,0,0,0,0,1.2561,1.2465,1.267,1.2693,1.2697,1.2787,1.2789,1.2791,1.2803,1.2802,1.28,1.2798,1.2917,1.2924,1.293,1.3005,0,0,1.295,1.2953,0,0,0,0,0,0,0,0,1.2555,1.2569,1.2689,1.2692,1.2696,1.2779,1.2759,1.2863,1.2804,1.2763,1.2799,1.2797,1.2875,1.2885,1.291,1.3011,1.3016,1.295,1.2954,1.2957,1.2959,0,0,0,0,0,0,0,1.2548,1.2564,1.2717,1.269,1.2695,1.2698,1.2711,1.2778,1.2827,1.2766,1.2768,1.2781,1.2876,1.2904,1.2913,1.3018,1.295,1.2956,1.296,1.2962,1.3186,1.3188,0,0,0,0,0,0,1.2537,1.2558,1.2713,1.272,1.262,1.2704,1.2718,1.2754,1.2827,1.2836,1.2783,1.2781,1.2894,1.2906,1.2918,1.301,1.2957,1.2963,1.2967,1.3184,1.3186,1.3188,0,0,0,0,0,0,1.2532,1.2551,1.2708,1.264,1.266,1.2709,1.275,1.2757,1.2785,1.2839,1.2848,1.2802,1.2893,1.2909,1.2983,1.3015,1.2966,1.2972,1.3181,1.3185,1.3187,1.3196,0,0,0,0,0,0,1.2526,1.2549,1.2578,1.264,1.2663,1.2771,1.2752,1.2761,1.2796,1.2795,1.2859,1.2868,1.2893,1.2973,1.299,1.3023,1.2977,1.3179,1.3183,1.3186,1.3194,1.3199,1.3205,0,0,0,0,0,1.2519,1.2576,1.2579,1.2598,1.27,1.2773,1.2787,1.2813,1.2798,1.2828,1.2863,1.2866,1.3009,1.2981,1.2999,1.3035,1.3177,1.3182,1.3186,1.3191,1.3198,1.3204,0,0,0,0,0,0,1.2516,1.2584,1.2589,1.2668,1.2715,1.2775,1.2813,1.282,1.2873,1.287,1.2902,1.2916,1.2989,1.302,1.2988,1.3112,1.3091,1.31,1.3089,1.3096,1.3102,1.3093,1.2982,0,0,0,0,0,1.2525,1.2578,1.2635,1.2699,1.2722,1.2764,1.2797,1.2813,1.2863,1.2883,1.2923,1.2972,1.3028,1.3064,1.3118,1.3198,1.3212,1.3232,1.3237,1.3241,1.3248,1.3293,1.3302,1.3204,1.3204,1.3204,0,0,1.2543,1.2587,1.2619,1.27,1.2738,1.2792,1.278,1.2839,1.2879,1.2892,1.2965,1.2996,1.3052,1.313,1.3166,1.3158,1.3279,1.3247,1.325,1.3255,1.3299,1.3308,1.3316,1.3207,1.3206,1.3206,0,0,1.2605,1.2643,1.2701,1.2739,1.2797,1.2824,1.2838,1.2898,1.2919,1.2993,1.3003,1.3052,1.3148,1.3187,1.322,1.3297,1.3302,1.3313,1.3342,1.3385,1.3393,1.34,1.3427,1.3436,1.332,1.332,1.332,0,1.262,1.2703,1.273,1.2788,1.2823,1.2836,1.2895,1.2931,1.3004,1.3028,1.3018,1.3138,1.3177,1.3264,1.3282,1.3308,1.3325,1.3306,1.3389,1.3397,1.3404,1.343,1.344,1.3321,1.3321,1.3321,1.3321,0,1.2719,1.2776,1.2816,1.2885,1.2925,1.2983,1.3019,1.3056,1.307,1.3098,1.3173,1.322,1.3284,1.3306,1.3319,1.3395,1.3388,1.3383,1.3363,1.3414,1.3439,1.3449,1.3323,1.3322,1.3322,1.3322,0,0,1.2782,1.2865,1.288,1.2911,1.2976,1.3021,1.308,1.3142,1.3173,1.3223,1.3273,1.3353,1.3349,1.3386,1.3405,1.3443,1.35,1.3433,1.3435,1.3444,1.3586,1.3589,1.36,1.3504,1.3506,1.3508,1.3581,0,1.285,1.2955,1.2981,1.307,1.3123,1.3137,1.3188,1.3234,1.3262,1.3311,1.3343,1.3399,1.339,1.3412,1.345,1.3485,1.3529,1.348,1.3551,1.3553,1.3536,1.3613,1.3617,1.3684,1.3591,1.3593,1.3594,0,1.2944,1.2996,1.309,1.3148,1.3171,1.3217,1.3276,1.3323,1.3375,1.3393,1.3434,1.3449,1.3511,1.3488,1.3574,1.354,1.3571,1.3592,1.3596,1.3603,1.3576,1.3623,1.3706,1.3716,1.361,1.3609,1.3607,0,1.298,1.3073,1.3142,1.3168,1.3238,1.3269,1.33,1.335,1.3386,1.3438,1.3461,1.352,1.3552,1.3597,1.3627,1.3608,1.3711,1.369,1.3727,1.3727,1.3748,1.3746,1.3837,1.3768,1.3768,1.3768,1.3768,0,1.3054,1.3111,1.3159,1.3201,1.3265,1.3295,1.3358,1.3389,1.3434,1.3482,1.3498,1.3543,1.3581,1.3631,1.3655,1.3723,1.3737,1.3754,1.3759,1.3752,1.375,1.3772,1.3768,1.3771,1.377,1.377,1.3769,0,1.3104,1.3139,1.3214,1.3274,1.329,1.3335,1.3386,1.3428,1.3456,1.3518,1.3534,1.3579,1.3639,1.3674,1.375,1.3766,1.3841,1.3845,1.3823,1.3826,1.3861,1.3857,1.3969,1.3985,1.3906,1.3906,1.3907,0,1.3149,1.3193,1.3257,1.3291,1.3322,1.3375,1.3412,1.3443,1.3481,1.3543,1.3577,1.3638,1.3689,1.3785,1.3824,1.3883,1.3888,1.3923,1.3897,1.3888,1.3888,1.3885,1.3889,1.3927,1.3928,1.3929,1.3929,0,1.3224,1.3239,1.329,1.3348,1.3391,1.3439,1.3485,1.3512,1.3551,1.3592,1.3654,1.3693,1.3771,1.3831,1.3893,1.3925,1.3934,1.3937,1.3949,1.3942,1.3927,1.3935,1.3835,1.3934,1.3934,1.3934,1.3933,1.3933,1.3273,1.3313,1.3364,1.3421,1.346,1.3503,1.3545,1.3579,1.3631,1.3696,1.3712,1.3776,1.3828,1.3911,1.3945,1.3996,1.399,1.4007,1.4011,1.4014,1.4015,1.3919,1.4007,1.4007,1.4007,1.4007,1.4007,0,1.3349,1.3382,1.3435,1.3499,1.3544,1.3549,1.3601,1.3638,1.3695,1.3742,1.3791,1.3862,1.3921,1.3965,1.4026,1.4058,1.4064,1.4073,1.4071,1.4078,1.4018,1.4001,1.4067,1.4067,1.4067,1.4067,1.4067,1.4067,1.3393,1.3461,1.3482,1.3569,1.3602,1.3666,1.3695,1.3735,1.3773,1.3851,1.39,1.3928,1.3975,1.4038,1.4093,1.4104,1.4125,1.4134,1.4146,1.4089,1.4082,1.4076,1.4061,1.4138,1.4138,1.4202,1.4203,1.4203]},{"header":{"parameterUnit":"m.s-1","parameterCategory":1,"la1":30.2991,"la2":30.254,"lo1":-89.0895,"lo2":-89.0444,"dy":0.0017,"dx":0.0017,"nx":28,"ny":28,"refTime":"2024-04-19T03:00:00:Z","depth":0,"parameterNumber":3,"parameterNumberName":"V-component_of_WINDS"},"data":[0,0,0,0,0,0,0,0,0,0,0,0,0,0,0,0,0,0,0,0,0,0,0,0,0,0,0,0,0,0,0,0,0,0,0,0,0,0,0,0,0,0,0,0,0,0,0,0,0,0,0,0,0,0,0,0,0,0,3.9811,3.9811,0,3.9846,3.9846,3.9847,3.9811,3.981,3.9809,3.9807,3.9839,3.9841,3.9843,0,0,0,0,0,0,0,0,0,0,0,0,0,3.9708,3.971,3.9811,3.9811,3.9812,3.9846,3.9846,3.9847,3.9812,3.981,3.9808,3.9807,3.9838,3.984,3.9843,0,0,0,0,0,0,0,0,0,0,0,0,0,3.9749,3.9711,3.9811,3.9798,3.9798,3.9846,3.9846,3.9847,3.9812,3.981,3.9808,3.9806,3.9837,3.984,3.9843,3.9904,0,0,3.9853,3.9854,0,0,0,0,0,0,0,0,3.9746,3.9752,3.98,3.9799,3.9798,3.9822,3.9821,3.9866,3.9813,3.9806,3.9807,3.9805,3.9835,3.9838,3.9849,3.9905,3.9907,3.9853,3.9855,3.9857,3.9857,0,0,0,0,0,0,0,3.9744,3.9751,3.9824,3.98,3.98,3.9789,3.9793,3.983,3.9831,3.9807,3.9804,3.9809,3.9834,3.9846,3.9849,3.9907,3.9853,3.9856,3.9858,3.9859,4.0015,4.0017,0,0,0,0,0,0,3.9743,3.9749,3.9823,3.9825,3.9767,3.9793,3.9797,3.9817,3.9831,3.9831,3.9811,3.9807,3.9841,3.9846,3.985,3.9922,3.9857,3.9859,3.9861,4.0013,4.0016,4.0018,0,0,0,0,0,0,3.9741,3.975,3.9822,3.9786,3.9795,3.9797,3.9819,3.9818,3.983,3.9834,3.9834,3.9823,3.984,3.9846,3.9891,3.9923,3.9861,3.9864,4.001,4.0014,4.0017,4.0067,0,0,0,0,0,0,3.9738,3.9749,3.9774,3.9787,3.9797,3.9864,3.9821,3.9821,3.9837,3.9832,3.9846,3.9846,3.9839,3.9887,3.9894,3.9926,3.9866,4.0007,4.0012,4.0016,4.0062,4.0072,4.0079,0,0,0,0,0,3.9734,3.9785,3.9775,3.9784,3.9828,3.9866,3.9871,3.9863,3.9839,3.9863,3.9865,3.9845,3.9918,3.9892,3.99,3.9933,4.0005,4.001,4.0015,4.0059,4.007,4.0079,0,0,0,0,0,0,3.9773,3.9787,3.9776,3.9833,3.9849,3.986,3.989,3.9875,3.9897,3.9892,3.988,3.9883,3.9932,3.9937,3.9907,3.9992,3.9958,3.9965,3.9988,3.9998,4.0007,4.0004,3.9869,0,0,0,0,0,3.9789,3.9821,3.983,3.9879,3.9888,3.9888,3.9904,3.9897,3.9912,3.9918,3.9924,3.9938,3.9964,3.9981,4.0005,4.0063,4.0065,4.009,4.0098,4.0105,4.0111,4.0142,4.0153,4.0035,4.0035,4.0034,0,0,3.982,3.9832,3.9852,3.9887,3.9899,3.993,3.9893,3.9928,3.9951,3.9923,3.9967,3.9971,3.9986,4.0038,4.0061,4.0044,4.0144,4.0112,4.0117,4.0119,4.0148,4.0159,4.0169,4.0038,4.0037,4.0037,0,0,3.9895,3.9907,3.995,3.9962,3.9981,3.998,3.999,4.0004,4.0007,4.0051,4.003,4.0056,4.0101,4.0113,4.0125,4.0204,4.0186,4.0212,4.0256,4.0286,4.0295,4.0304,4.0332,4.0342,4.0218,4.0218,4.0218,0,3.9932,3.998,3.9973,4.001,4.0025,4.0003,4.0045,4.0057,4.0082,4.0092,4.0073,4.0129,4.0138,4.0192,4.0212,4.0222,4.0232,4.021,4.0295,4.0303,4.0311,4.0337,4.0348,4.0221,4.0221,4.022,4.022,0,4.0024,4.0058,4.009,4.0117,4.0136,4.0175,4.0172,4.0192,4.0183,4.0184,4.0229,4.0238,4.0264,4.0276,4.0267,4.033,4.0318,4.0297,4.0262,4.0325,4.035,4.036,4.0225,4.0224,4.0223,4.0223,0,0,4.0124,4.0147,4.0159,4.0171,4.0189,4.0215,4.0252,4.0279,4.0296,4.0314,4.0345,4.0384,4.0365,4.0378,4.037,4.0396,4.0458,4.0372,4.0372,4.0388,4.0527,4.0543,4.0555,4.0447,4.0448,4.045,4.0526,0,4.0199,4.0267,4.0262,4.0325,4.0356,4.0335,4.0367,4.0382,4.0384,4.0409,4.041,4.0438,4.041,4.0418,4.0444,4.0445,4.0486,4.044,4.0474,4.0475,4.0472,4.0568,4.0585,4.0656,4.0535,4.0537,4.0538,0,4.0296,4.0319,4.0387,4.0401,4.0414,4.0444,4.0468,4.0492,4.0508,4.0507,4.0523,4.051,4.0546,4.051,4.056,4.0529,4.0542,4.0545,4.0548,4.0551,4.0511,4.0574,4.0679,4.069,4.0553,4.0552,4.0551,0,4.0362,4.041,4.0457,4.0467,4.0485,4.0507,4.0515,4.0528,4.0545,4.0565,4.0576,4.0599,4.0612,4.0631,4.0624,4.0599,4.0675,4.0639,4.0675,4.0675,4.0692,4.0691,4.0801,4.0701,4.07,4.07,4.07,0,4.0447,4.0489,4.0487,4.0515,4.0561,4.0554,4.0599,4.0604,4.0616,4.0644,4.0626,4.0653,4.0643,4.0668,4.0663,4.0705,4.0711,4.0711,4.0709,4.0712,4.0713,4.0721,4.0716,4.0703,4.0702,4.0702,4.0701,0,4.0529,4.0529,4.0579,4.0592,4.0597,4.063,4.064,4.0667,4.0667,4.0703,4.0711,4.0711,4.074,4.0736,4.0767,4.0764,4.0816,4.0808,4.0812,4.081,4.0847,4.0843,4.0966,4.0982,4.0871,4.0872,4.0873,0,4.0583,4.0615,4.0633,4.0651,4.0662,4.0691,4.0709,4.0702,4.072,4.074,4.0764,4.0791,4.0813,4.086,4.0862,4.0886,4.0879,4.092,4.0882,4.0885,4.088,4.0878,4.0881,4.0928,4.0929,4.093,4.0931,0,4.0679,4.0678,4.0705,4.0732,4.0753,4.0774,4.0792,4.0808,4.0802,4.0823,4.0854,4.0871,4.0904,4.0932,4.0954,4.0961,4.0945,4.0943,4.0953,4.0957,4.0958,4.0958,4.0833,4.094,4.0939,4.0938,4.0938,4.0938,4.0749,4.0777,4.0794,4.0824,4.0837,4.0855,4.0881,4.0885,4.0911,4.0939,4.0932,4.0967,4.098,4.1009,4.1018,4.1044,4.1028,4.1042,4.1046,4.105,4.1054,4.0954,4.1048,4.1048,4.1047,4.1047,4.1047,0,4.0844,4.0855,4.0883,4.091,4.0933,4.0918,4.0937,4.0957,4.0989,4.1003,4.1026,4.1061,4.1087,4.1092,4.1117,4.1136,4.113,4.1143,4.1142,4.1143,4.1067,4.1056,4.1148,4.1148,4.1148,4.1148,4.1148,4.1148,4.0897,4.0943,4.0944,4.0996,4.1005,4.104,4.1053,4.1068,4.108,4.1121,4.1143,4.1147,4.1157,4.1183,4.1206,4.1207,4.1217,4.1233,4.1231,4.1159,4.1149,4.1139,4.1129,4.1235,4.1236,4.1306,4.1306,4.1307]}]]